{"data":{"norad_id":67952,"epoch":"2026-05-25T04:00:03.998880Z","epoch_age_seconds":60340,"freshness":"FRESH","line1":"1 67952U 26037W   26145.16671295 -.00009020  00000+0 -31868-3 0  9993","line2":"2 67952  42.9994 119.0585 0001088 257.3238 119.6582 15.27578326  5816","mean_motion":15.27578326,"eccentricity":0.0001088,"inclination_deg":42.9994,"raan_deg":119.0585,"arg_perigee_deg":257.3238,"mean_anomaly_deg":119.6582,"bstar":-0.00031868,"rev_number":581,"period_min":94.266852016071,"perigee_km":482.30761100983,"apogee_km":483.80060619506,"semimajor_km":6861.1911086024,"source":"CELESTRAK","updated_at":"2026-05-25T13:38:21.770522Z"}}